| time (UTC) | temp F | wind direction | speed knots | gust knots | rain 1hr in | rain 24hr in | rain mn in | humidity % | barometer mb |
| 20260505201510 | 80 | 229 | 2.6 | 11.3 | 0.00 | 0.01 | 0.01 | 35 | 1007.6 |
| 20260505201011 | 80 | 252 | 0.9 | 11.3 | 0.00 | 0.01 | 0.01 | 36 | 1007.5 |
| 20260505200508 | 80 | 139 | 2.6 | 8.7 | 0.00 | 0.01 | 0.01 | 35 | 1007.6 |
| 20260505200007 | 79 | 245 | 1.7 | 8.7 | 0.00 | 0.01 | 0.01 | 35 | 1007.7 |
| 20260505195507 | 79 | 200 | 1.7 | 9.6 | 0.00 | 0.01 | 0.01 | 33 | 1007.7 |
| 20260505195007 | 80 | 203 | 3.5 | 13.9 | 0.00 | 0.01 | 0.01 | 34 | 1007.7 |
| 20260505194507 | 80 | 187 | 3.5 | 13.9 | 0.00 | 0.01 | 0.01 | 35 | 1007.6 |
| 20260505194007 | 80 | 241 | 1.7 | 7.0 | 0.00 | 0.01 | 0.01 | 34 | 1007.6 |
| 20260505193506 | 80 | 269 | 3.5 | 7.8 | 0.00 | 0.01 | 0.01 | 34 | 1007.7 |
| 20260505193005 | 80 | 252 | 3.5 | 7.8 | 0.00 | 0.01 | 0.01 | 33 | 1007.8 |
| 20260505192505 | 80 | 207 | 1.7 | 6.1 | 0.00 | 0.01 | 0.01 | 34 | 1007.8 |
| 20260505192004 | 80 | 233 | 3.5 | 8.7 | 0.00 | 0.01 | 0.01 | 36 | 1007.8 |
| 20260505191504 | 80 | 267 | 2.6 | 8.7 | 0.00 | 0.01 | 0.01 | 36 | 1007.9 |
| 20260505191003 | 80 | 222 | 1.7 | 6.1 | 0.00 | 0.01 | 0.01 | 37 | 1008.0 |
| 20260505190501 | 80 | 241 | 2.6 | 7.8 | 0.00 | 0.01 | 0.01 | 35 | 1008.0 |
| 20260505190001 | 80 | 239 | 3.5 | 7.8 | 0.00 | 0.01 | 0.01 | 35 | 1008.2 |
| 20260505185502 | 80 | 226 | 2.6 | 7.0 | 0.00 | 0.01 | 0.01 | 37 | 1008.2 |
| 20260505185100 | 80 | 232 | 1.7 | 6.1 | 0.00 | 0.01 | 0.01 | 37 | 1008.3 |
| 20260505184600 | 80 | 298 | 1.7 | 8.7 | 0.00 | 0.01 | 0.01 | 38 | 1008.3 |
| 20260505184100 | 81 | 269 | 3.5 | 8.7 | 0.00 | 0.01 | 0.01 | 37 | 1008.4 |
| 20260505183600 | 80 | 252 | 2.6 | 6.1 | 0.00 | 0.01 | 0.01 | 37 | 1008.3 |
| 20260505183100 | 80 | 277 | 2.6 | 5.2 | 0.00 | 0.01 | 0.01 | 37 | 1008.4 |
| 20260505182600 | 80 | 260 | 2.6 | 4.3 | 0.00 | 0.01 | 0.01 | 39 | 1008.4 |
| 20260505182100 | 80 | 264 | 2.6 | 6.1 | 0.00 | 0.01 | 0.01 | 37 | 1008.5 |
| 20260505181558 | 80 | 195 | 2.6 | 6.1 | 0.00 | 0.01 | 0.01 | 34 | 1008.7 |
| 20260505181100 | 80 | 250 | 0.9 | 6.1 | 0.00 | 0.01 | 0.01 | 38 | 1008.7 |
| 20260505180556 | 80 | 221 | 3.5 | 7.8 | 0.00 | 0.01 | 0.01 | 39 | 1008.8 |
| 20260505180059 | 80 | 242 | 2.6 | 7.8 | 0.00 | 0.01 | 0.01 | 38 | 1008.9 |
| 20260505175555 | 81 | 235 | 0.9 | 8.7 | 0.00 | 0.01 | 0.01 | 39 | 1008.8 |
| 20260505175054 | 80 | 234 | 3.5 | 16.5 | 0.00 | 0.01 | 0.01 | 41 | 1008.8 |
| 20260505174555 | 80 | 182 | 2.6 | 16.5 | 0.00 | 0.01 | 0.01 | 40 | 1008.8 |
| 20260505174053 | 80 | 224 | 2.6 | 8.7 | 0.00 | 0.01 | 0.01 | 39 | 1008.8 |
| 20260505173553 | 80 | 232 | 1.7 | 7.0 | 0.00 | 0.01 | 0.01 | 41 | 1008.9 |
| 20260505173110 | 80 | 244 | 2.6 | 7.0 | 0.00 | 0.01 | 0.01 | 41 | 1008.9 |
| 20260505172551 | 80 | 282 | 1.7 | 6.1 | 0.00 | 0.01 | 0.01 | 39 | 1008.9 |
| 20260505172050 | 80 | 276 | 2.6 | 6.1 | 0.00 | 0.01 | 0.01 | 40 | 1009.0 |
| 20260505171605 | 79 | 237 | 1.7 | 6.1 | 0.00 | 0.01 | 0.01 | 40 | 1009.0 |
| 20260505171050 | 79 | 262 | 1.7 | 4.3 | 0.00 | 0.01 | 0.01 | 43 | 1009.2 |
| 20260505170548 | 79 | 255 | 1.7 | 7.0 | 0.00 | 0.01 | 0.01 | 42 | 1009.2 |
| 20260505170048 | 80 | 267 | 2.6 | 7.0 | 0.00 | 0.01 | 0.01 | 39 | 1009.2 |
| 20260505165547 | 79 | 266 | 3.5 | 6.1 | 0.00 | 0.01 | 0.01 | 40 | 1009.2 |
| 20260505165047 | 80 | 244 | 1.7 | 7.8 | 0.00 | 0.01 | 0.01 | 41 | 1009.3 |
| 20260505164546 | 80 | 238 | 1.7 | 9.6 | 0.00 | 0.01 | 0.01 | 44 | 1009.4 |
| 20260505164045 | 79 | 214 | 0.9 | 9.6 | 0.00 | 0.01 | 0.01 | 43 | 1009.4 |
| 20260505163544 | 79 | 257 | 1.7 | 4.3 | 0.00 | 0.01 | 0.01 | 42 | 1009.3 |
| 20260505163044 | 79 | 259 | 1.7 | 4.3 | 0.00 | 0.01 | 0.01 | 43 | 1009.4 |
| 20260505162543 | 79 | 262 | 1.7 | 5.2 | 0.00 | 0.01 | 0.01 | 43 | 1009.5 |
| 20260505162043 | 79 | 271 | 1.7 | 7.8 | 0.00 | 0.01 | 0.01 | 43 | 1009.5 |
| 20260505161542 | 79 | 268 | 2.6 | 7.8 | 0.00 | 0.01 | 0.01 | 45 | 1009.4 |
| 20260505161040 | 78 | 262 | 1.7 | 5.2 | 0.00 | 0.01 | 0.01 | 42 | 1009.6 |
| 20260505160542 | 78 | 263 | 2.6 | 5.2 | 0.00 | 0.01 | 0.01 | 45 | 1009.8 |
| 20260505153033 | 76 | 265 | 1.7 | 3.5 | 0.00 | 0.01 | 0.01 | 45 | 1010.2 |
| 20260505152531 | 75 | 241 | 0.9 | 3.5 | 0.00 | 0.01 | 0.01 | 48 | 1010.2 |
| 20260505152030 | 75 | 248 | 1.7 | 3.5 | 0.00 | 0.01 | 0.01 | 49 | 1010.2 |
| 20260505151532 | 74 | 262 | 1.7 | 3.5 | 0.00 | 0.01 | 0.01 | 50 | 1010.2 |
| 20260505151027 | 74 | 241 | 0.9 | 3.5 | 0.00 | 0.01 | 0.01 | 53 | 1010.1 |
| 20260505150526 | 73 | 237 | 0.9 | 3.5 | 0.00 | 0.01 | 0.01 | 50 | 1010.2 |
| 20260505140513 | 69 | 279 | 0.9 | 4.3 | 0.00 | 0.01 | 0.01 | 59 | 1010.8 |
| 20260505130105 | 64 | 236 | 1.7 | 4.3 | 0.00 | 0.01 | 0.01 | 62 | 1011.1 |
| 20260505124600 | 64 | 258 | 0.9 | 4.3 | 0.00 | 0.01 | 0.01 | 64 | 1011.0 |
| 20260505124058 | 63 | 240 | 1.7 | 3.5 | 0.00 | 0.01 | 0.01 | 65 | 1011.0 |
| 20260505123558 | 63 | 266 | 1.7 | 3.5 | 0.00 | 0.01 | 0.01 | 65 | 1010.9 |
| 20260505123100 | 63 | 264 | 0.9 | 3.5 | 0.00 | 0.01 | 0.01 | 65 | 1010.7 |
| 20260505122553 | 62 | 264 | 0.9 | 2.6 | 0.00 | 0.01 | 0.01 | 66 | 1010.7 |
| 20260505122053 | 62 | 239 | 0.9 | 2.6 | 0.00 | 0.01 | 0.01 | 67 | 1010.7 |
| 20260505121620 | 62 | 234 | 0.9 | 2.6 | 0.00 | 0.01 | 0.01 | 68 | 1010.7 |
| 20260505121051 | 61 | 234 | 0.9 | 3.5 | 0.00 | 0.01 | 0.01 | 68 | 1010.7 |
| 20260505120550 | 61 | 234 | 0.9 | 3.5 | 0.00 | 0.01 | 0.01 | 68 | 1010.7 |
| 20260505120048 | 61 | 250 | 0.9 | 2.6 | 0.00 | 0.01 | 0.01 | 70 | 1010.6 |
| 20260505115547 | 60 | 233 | 0.9 | 2.6 | 0.00 | 0.01 | 0.01 | 71 | 1010.6 |
| 20260505115047 | 60 | 214 | 0.0 | 1.7 | 0.00 | 0.01 | 0.01 | 72 | 1010.7 |
| 20260505114547 | 59 | 164 | 0.0 | 1.7 | 0.00 | 0.01 | 0.01 | 73 | 1010.6 |
| 20260505114047 | 58 | 164 | 0.0 | 1.7 | 0.00 | 0.01 | 0.01 | 76 | 1010.6 |
| 20260505113548 | 58 | 164 | 0.0 | 0.9 | 0.00 | 0.01 | 0.01 | 77 | 1010.7 |
| 20260505113049 | 57 | 164 | 0.0 | 1.7 | 0.00 | 0.01 | 0.01 | 76 | 1010.6 |
| 20260505112546 | 57 | 164 | 0.0 | 2.6 | 0.00 | 0.01 | 0.01 | 77 | 1010.6 |
| 20260505112046 | 57 | 161 | 0.9 | 2.6 | 0.00 | 0.01 | 0.01 | 78 | 1010.6 |
| 20260505111549 | 56 | 163 | 0.0 | 2.6 | 0.00 | 0.01 | 0.01 | 79 | 1010.5 |
| 20260505111048 | 55 | 185 | 0.9 | 1.7 | 0.00 | 0.01 | 0.01 | 80 | 1010.6 |
| 20260505110545 | 54 | 185 | 0.0 | 1.7 | 0.00 | 0.01 | 0.01 | 81 | 1010.6 |
| 20260505102041 | 53 | 185 | 0.0 | 1.7 | 0.00 | 0.01 | 0.01 | 80 | 1010.4 |
| 20260505101543 | 53 | 185 | 0.9 | 1.7 | 0.00 | 0.01 | 0.01 | 79 | 1010.4 |
| 20260505101040 | 53 | 185 | 0.0 | 0.9 | 0.00 | 0.01 | 0.01 | 79 | 1010.4 |
| 20260505100539 | 53 | 185 | 0.0 | 1.7 | 0.00 | 0.01 | 0.01 | 79 | 1010.3 |
| 20260505100051 | 53 | 185 | 0.0 | 1.7 | 0.00 | 0.01 | 0.01 | 79 | 1010.3 |
| 20260505095542 | 54 | 185 | 0.0 | 1.7 | 0.00 | 0.01 | 0.01 | 78 | 1010.2 |
| 20260505095041 | 54 | 185 | 0.0 | 1.7 | 0.00 | 0.01 | 0.01 | 78 | 1010.2 |
| 20260505094541 | 54 | 185 | 0.0 | 0.9 | 0.00 | 0.01 | 0.01 | 78 | 1010.4 |
| 20260505094036 | 55 | 185 | 0.0 | 0.9 | 0.00 | 0.01 | 0.01 | 77 | 1010.4 |
| 20260505093534 | 55 | 185 | 0.0 | 0.9 | 0.00 | 0.01 | 0.01 | 77 | 1010.3 |
| 20260505093033 | 55 | 185 | 0.0 | 1.7 | 0.00 | 0.01 | 0.01 | 77 | 1010.3 |
| 20260505092534 | 55 | 185 | 0.0 | 1.7 | 0.00 | 0.01 | 0.01 | 76 | 1010.2 |
| 20260505092032 | 56 | 185 | 0.0 | 1.7 | 0.00 | 0.01 | 0.01 | 76 | 1010.2 |
| 20260505091536 | 56 | 185 | 0.0 | 1.7 | 0.00 | 0.01 | 0.01 | 74 | 1010.1 |
| 20260505091030 | 56 | 185 | 0.0 | 1.7 | 0.00 | 0.01 | 0.01 | 75 | 1010.0 |
| 20260505090528 | 56 | 185 | 0.0 | 1.7 | 0.00 | 0.01 | 0.01 | 74 | 1009.9 |
| 20260505090028 | 57 | 185 | 0.0 | 1.7 | 0.00 | 0.01 | 0.01 | 73 | 1009.8 |
| 20260505085530 | 57 | 185 | 0.0 | 0.0 | 0.00 | 0.01 | 0.01 | 72 | 1009.7 |
| 20260505085030 | 57 | 185 | 0.0 | 0.0 | 0.00 | 0.01 | 0.01 | 72 | 1009.7 |
| 20260505084528 | 57 | 185 | 0.0 | 0.0 | 0.00 | 0.01 | 0.01 | 72 | 1009.6 |
| 20260505084027 | 57 | 185 | 0.0 | 0.9 | 0.00 | 0.01 | 0.01 | 73 | 1009.6 |
| 20260505083527 | 57 | 185 | 0.0 | 1.7 | 0.00 | 0.01 | 0.01 | 73 | 1009.6 |
| 20260505083036 | 57 | 185 | 0.0 | 1.7 | 0.00 | 0.01 | 0.01 | 73 | 1009.7 |
| 20260505082529 | 57 | 185 | 0.0 | 0.9 | 0.00 | 0.01 | 0.01 | 73 | 1009.7 |
| 20260505082029 | 57 | 185 | 0.0 | 0.9 | 0.00 | 0.01 | 0.01 | 75 | 1009.7 |
| 20260505081531 | 57 | 185 | 0.0 | 0.9 | 0.00 | 0.01 | 0.01 | 75 | 1009.7 |
| 20260505081027 | 56 | 185 | 0.0 | 0.9 | 0.01 | 0.01 | 0.01 | 77 | 1009.7 |
| 20260505080531 | 56 | 185 | 0.0 | 0.9 | 0.01 | 0.01 | 0.01 | 77 | 1009.8 |
| 20260505080043 | 56 | 185 | 0.0 | 0.9 | 0.01 | 0.01 | 0.01 | 77 | 1009.7 |
| 20260505075528 | 56 | 185 | 0.0 | 0.9 | 0.01 | 0.01 | 0.01 | 78 | 1009.7 |
| 20260505075029 | 56 | 185 | 0.0 | 0.9 | 0.01 | 0.01 | 0.01 | 77 | 1009.8 |
| 20260505074526 | 56 | 185 | 0.0 | 0.0 | 0.01 | 0.01 | 0.01 | 77 | 1009.8 |
| 20260505074027 | 56 | 185 | 0.0 | 0.0 | 0.01 | 0.01 | 0.01 | 77 | 1009.7 |
| 20260505073524 | 57 | 185 | 0.0 | 0.9 | 0.01 | 0.01 | 0.01 | 77 | 1009.8 |
| 20260505073026 | 57 | 185 | 0.0 | 1.7 | 0.01 | 0.01 | 0.01 | 76 | 1009.7 |
| 20260505072522 | 57 | 185 | 0.0 | 1.7 | 0.01 | 0.01 | 0.01 | 75 | 1009.7 |
| 20260505072021 | 58 | 185 | 0.9 | 1.7 | 0.01 | 0.01 | 0.01 | 74 | 1009.8 |
| 20260505071528 | 58 | 185 | 0.9 | 1.7 | 0.01 | 0.01 | 0.01 | 72 | 1009.7 |
| 20260505071022 | 58 | 122 | 0.0 | 1.7 | 0.00 | 0.00 | 0.00 | 69 | 1009.7 |
| 20260505070517 | 59 | 122 | 0.0 | 0.9 | 0.00 | 0.00 | 0.00 | 66 | 1009.6 |
| 20260505070017 | 59 | 122 | 0.0 | 0.9 | 0.00 | 0.00 | 0.00 | 66 | 1009.7 |
| 20260505065517 | 59 | 122 | 0.0 | 0.9 | 0.00 | 0.00 | 0.00 | 65 | 1009.7 |
| 20260505065019 | 59 | 122 | 0.0 | 0.9 | 0.00 | 0.00 | 0.00 | 65 | 1009.7 |
| 20260505064516 | 59 | 122 | 0.0 | 1.7 | 0.00 | 0.00 | 0.00 | 64 | 1009.7 |
| 20260505064015 | 59 | 122 | 0.0 | 1.7 | 0.00 | 0.00 | 0.00 | 64 | 1009.8 |
| 20260505063516 | 59 | 122 | 0.0 | 1.7 | 0.00 | 0.00 | 0.00 | 64 | 1009.8 |
| 20260505063026 | 59 | 122 | 0.0 | 1.7 | 0.00 | 0.00 | 0.00 | 64 | 1009.8 |
| 20260505062516 | 59 | 122 | 0.0 | 1.7 | 0.00 | 0.00 | 0.00 | 63 | 1009.8 |
| 20260505062017 | 59 | 122 | 0.0 | 1.7 | 0.00 | 0.00 | 0.00 | 64 | 1009.8 |
| 20260505061515 | 59 | 122 | 0.0 | 1.7 | 0.00 | 0.00 | 0.00 | 63 | 1009.8 |
| 20260505061017 | 59 | 122 | 0.0 | 1.7 | 0.00 | 0.00 | 0.00 | 64 | 1009.8 |
| 20260505060513 | 59 | 122 | 0.0 | 1.7 | 0.00 | 0.00 | 0.00 | 63 | 1009.8 |
| 20260505060013 | 59 | 122 | 0.0 | 1.7 | 0.00 | 0.00 | 0.00 | 63 | 1009.8 |
| 20260505055513 | 59 | 122 | 0.0 | 1.7 | 0.00 | 0.00 | 0.00 | 63 | 1009.7 |
| 20260505055013 | 59 | 122 | 0.0 | 1.7 | 0.00 | 0.00 | 0.00 | 63 | 1009.7 |
| 20260505054514 | 59 | 122 | 0.0 | 1.7 | 0.00 | 0.00 | 0.00 | 63 | 1009.7 |
| 20260505054012 | 59 | 122 | 0.0 | 2.6 | 0.00 | 0.00 | 0.00 | 63 | 1009.6 |
| 20260505053512 | 59 | 122 | 0.0 | 2.6 | 0.00 | 0.00 | 0.00 | 62 | 1009.7 |
| 20260505053012 | 59 | 101 | 0.0 | 4.3 | 0.00 | 0.00 | 0.00 | 62 | 1009.6 |
| 20260505052511 | 59 | 187 | 0.9 | 4.3 | 0.00 | 0.00 | 0.00 | 62 | 1009.5 |
| 20260505052011 | 59 | 102 | 0.0 | 2.6 | 0.00 | 0.00 | 0.00 | 61 | 1009.7 |
| 20260505051509 | 59 | 101 | 0.0 | 2.6 | 0.00 | 0.00 | 0.00 | 61 | 1009.7 |
| 20260505051009 | 59 | 145 | 0.0 | 0.9 | 0.00 | 0.00 | 0.00 | 60 | 1009.8 |
| 20260505050508 | 59 | 145 | 0.0 | 0.9 | 0.00 | 0.00 | 0.00 | 60 | 1009.8 |
| 20260505041611 | 61 | 165 | 1.7 | 4.3 | 0.00 | 0.00 | 0.00 | 55 | 1009.7 |
| 20260505041100 | 61 | 186 | 0.9 | 7.0 | 0.00 | 0.00 | 0.00 | 54 | 1009.7 |
| 20260505040559 | 61 | 158 | 1.7 | 7.8 | 0.00 | 0.00 | 0.00 | 53 | 1009.7 |
| 20260505040104 | 61 | 143 | 2.6 | 8.7 | 0.00 | 0.00 | 0.00 | 54 | 1009.6 |
| 20260505035558 | 61 | 158 | 1.7 | 8.7 | 0.00 | 0.00 | 0.00 | 53 | 1009.6 |
| 20260505035158 | 61 | 160 | 2.6 | 7.8 | 0.00 | 0.00 | 0.00 | 53 | 1009.6 |
| 20260505034558 | 61 | 153 | 1.7 | 6.1 | 0.00 | 0.00 | 0.00 | 54 | 1009.7 |
| 20260505034100 | 61 | 170 | 2.6 | 6.1 | 0.00 | 0.00 | 0.00 | 53 | 1009.7 |
| 20260505033558 | 61 | 156 | 1.7 | 7.0 | 0.00 | 0.00 | 0.00 | 54 | 1009.7 |
| 20260505033058 | 61 | 146 | 2.6 | 7.0 | 0.00 | 0.00 | 0.00 | 53 | 1009.8 |
| 20260505032559 | 61 | 135 | 0.9 | 5.2 | 0.00 | 0.00 | 0.00 | 53 | 1009.8 |
| 20260505032057 | 61 | 121 | 1.7 | 6.1 | 0.00 | 0.00 | 0.00 | 53 | 1009.8 |
| 20260505031605 | 61 | 146 | 1.7 | 7.0 | 0.00 | 0.00 | 0.00 | 53 | 1009.9 |
| 20260505031057 | 61 | 148 | 2.6 | 7.0 | 0.00 | 0.00 | 0.00 | 53 | 1009.9 |
| 20260505030557 | 61 | 149 | 2.6 | 7.8 | 0.00 | 0.00 | 0.00 | 53 | 1009.8 |
| 20260505030104 | 61 | 158 | 2.6 | 7.8 | 0.00 | 0.00 | 0.00 | 53 | 1009.8 |
| 20260505025557 | 61 | 150 | 1.7 | 7.0 | 0.00 | 0.00 | 0.00 | 52 | 1010.0 |
| 20260505025059 | 61 | 113 | 2.6 | 6.1 | 0.00 | 0.00 | 0.00 | 53 | 1010.0 |
| 20260505024607 | 61 | 128 | 2.6 | 6.1 | 0.00 | 0.00 | 0.00 | 53 | 1010.1 |
| 20260505024056 | 61 | 128 | 2.6 | 6.1 | 0.00 | 0.00 | 0.00 | 52 | 1010.0 |
| 20260505023556 | 61 | 165 | 1.7 | 6.1 | 0.00 | 0.00 | 0.00 | 52 | 1010.1 |
| 20260505023059 | 62 | 137 | 1.7 | 4.3 | 0.00 | 0.00 | 0.00 | 52 | 1010.1 |
| 20260505022559 | 62 | 145 | 1.7 | 6.1 | 0.00 | 0.00 | 0.00 | 51 | 1010.1 |
| 20260505022057 | 62 | 155 | 2.6 | 6.1 | 0.00 | 0.00 | 0.00 | 51 | 1010.1 |
| 20260505021559 | 62 | 150 | 0.9 | 4.3 | 0.00 | 0.00 | 0.00 | 51 | 1010.2 |
| 20260505021055 | 62 | 155 | 1.7 | 6.1 | 0.00 | 0.00 | 0.00 | 50 | 1010.1 |
| 20260505020554 | 62 | 155 | 0.9 | 6.1 | 0.00 | 0.00 | 0.00 | 50 | 1010.2 |
| 20260505020103 | 62 | 144 | 1.7 | 4.3 | 0.00 | 0.00 | 0.00 | 49 | 1010.2 |
| 20260505015554 | 63 | 118 | 1.7 | 5.2 | 0.00 | 0.00 | 0.00 | 49 | 1010.1 |
| 20260505015054 | 63 | 147 | 1.7 | 4.3 | 0.00 | 0.00 | 0.00 | 48 | 1010.2 |
| 20260505014554 | 63 | 145 | 1.7 | 4.3 | 0.00 | 0.00 | 0.00 | 48 | 1010.1 |
| 20260505014055 | 63 | 169 | 1.7 | 4.3 | 0.00 | 0.00 | 0.00 | 48 | 1010.1 |
| 20260505013553 | 63 | 159 | 1.7 | 6.1 | 0.00 | 0.00 | 0.00 | 48 | 1010.1 |
| 20260505013053 | 63 | 156 | 2.6 | 6.1 | 0.00 | 0.00 | 0.00 | 47 | 1010.0 |
| 20260505012553 | 63 | 148 | 0.9 | 5.2 | 0.00 | 0.00 | 0.00 | 47 | 1010.0 |
| 20260505012053 | 63 | 152 | 1.7 | 4.3 | 0.00 | 0.00 | 0.00 | 47 | 1010.0 |
| 20260505011553 | 64 | 160 | 1.7 | 4.3 | 0.00 | 0.00 | 0.00 | 47 | 1009.9 |
| 20260505011052 | 64 | 149 | 0.9 | 4.3 | 0.00 | 0.00 | 0.00 | 46 | 1009.8 |
| 20260505010555 | 64 | 159 | 1.7 | 4.3 | 0.00 | 0.00 | 0.00 | 45 | 1009.8 |
| 20260505010108 | 64 | 131 | 0.9 | 3.5 | 0.00 | 0.00 | 0.00 | 45 | 1009.7 |
| 20260505005552 | 64 | 153 | 0.0 | 3.5 | 0.00 | 0.00 | 0.00 | 45 | 1009.7 |
| 20260505005052 | 64 | 153 | 0.9 | 3.5 | 0.00 | 0.00 | 0.00 | 45 | 1009.6 |
| 20260505004554 | 64 | 152 | 0.9 | 3.5 | 0.00 | 0.00 | 0.00 | 45 | 1009.5 |
| 20260505004052 | 64 | 155 | 0.9 | 2.6 | 0.00 | 0.00 | 0.00 | 45 | 1009.5 |
| 20260505003551 | 64 | 155 | 0.9 | 3.5 | 0.00 | 0.00 | 0.00 | 45 | 1009.5 |
| 20260505003053 | 65 | 149 | 0.9 | 3.5 | 0.00 | 0.00 | 0.00 | 44 | 1009.5 |
| 20260505002551 | 65 | 153 | 0.9 | 2.6 | 0.00 | 0.00 | 0.00 | 44 | 1009.4 |
| 20260505002051 | 65 | 186 | 0.0 | 1.7 | 0.00 | 0.00 | 0.00 | 44 | 1009.4 |
| 20260505001551 | 65 | 186 | 0.0 | 1.7 | 0.00 | 0.00 | 0.00 | 44 | 1009.3 |
| 20260505001054 | 65 | 160 | 0.0 | 0.9 | 0.00 | 0.00 | 0.00 | 44 | 1009.3 |
| 20260505000550 | 65 | 160 | 0.0 | 2.6 | 0.00 | 0.00 | 0.00 | 43 | 1009.3 |
| 20260505000058 | 66 | 160 | 0.0 | 2.6 | 0.00 | 0.00 | 0.00 | 44 | 1009.3 |
| 20260504235554 | 66 | 157 | 0.0 | 3.5 | 0.00 | 0.00 | 0.00 | 42 | 1009.3 |
| 20260504235050 | 66 | 196 | 0.9 | 4.3 | 0.00 | 0.00 | 0.00 | 43 | 1009.3 |
| 20260504234551 | 66 | 150 | 0.9 | 4.3 | 0.00 | 0.00 | 0.00 | 42 | 1009.2 |
| 20260504234049 | 66 | 158 | 1.7 | 5.2 | 0.00 | 0.00 | 0.00 | 43 | 1009.1 |
| 20260504233553 | 66 | 142 | 0.0 | 5.2 | 0.00 | 0.00 | 0.00 | 42 | 1009.1 |
| 20260504233054 | 67 | 147 | 0.0 | 4.3 | 0.00 | 0.00 | 0.00 | 43 | 1009.0 |
| 20260504232550 | 67 | 216 | 0.0 | 1.7 | 0.00 | 0.00 | 0.00 | 42 | 1009.1 |
| 20260504232049 | 67 | 216 | 0.9 | 1.7 | 0.00 | 0.00 | 0.00 | 43 | 1009.0 |
| 20260504231551 | 67 | 56 | 0.9 | 2.6 | 0.00 | 0.00 | 0.00 | 42 | 1009.0 |
| 20260504231049 | 67 | 228 | 0.0 | 2.6 | 0.00 | 0.00 | 0.00 | 42 | 1009.0 |
| 20260504230552 | 67 | 228 | 0.9 | 6.1 | 0.00 | 0.00 | 0.00 | 42 | 1008.9 |
| 20260504230108 | 67 | 157 | 0.9 | 2.6 | 0.00 | 0.00 | 0.00 | 42 | 1008.9 |
| 20260504225650 | 68 | 212 | 0.9 | 2.6 | 0.00 | 0.00 | 0.00 | 42 | 1008.9 |
| 20260504225051 | 68 | 236 | 0.9 | 2.6 | 0.00 | 0.00 | 0.00 | 42 | 1008.9 |
| 20260504224600 | 68 | 236 | 0.9 | 6.1 | 0.00 | 0.00 | 0.00 | 41 | 1008.9 |
| 20260504224047 | 68 | 166 | 0.9 | 6.1 | 0.00 | 0.00 | 0.00 | 41 | 1008.9 |
| 20260504223547 | 68 | 111 | 0.9 | 6.1 | 0.00 | 0.00 | 0.00 | 42 | 1008.9 |
| 20260504223048 | 68 | 239 | 0.9 | 4.3 | 0.00 | 0.00 | 0.00 | 41 | 1008.9 |
| 20260504222548 | 69 | 245 | 0.0 | 3.5 | 0.00 | 0.00 | 0.00 | 42 | 1008.9 |
| 20260504222047 | 69 | 245 | 0.9 | 3.5 | 0.00 | 0.00 | 0.00 | 43 | 1009.0 |
| 20260504221547 | 69 | 262 | 0.0 | 3.5 | 0.00 | 0.00 | 0.00 | 41 | 1009.0 |
| 20260504221046 | 69 | 236 | 1.7 | 6.1 | 0.00 | 0.00 | 0.00 | 41 | 1009.0 |
| 20260504220546 | 69 | 226 | 0.9 | 6.1 | 0.00 | 0.00 | 0.00 | 40 | 1009.0 |
| 20260504220053 | 69 | 244 | 0.9 | 6.1 | 0.00 | 0.00 | 0.00 | 41 | 1009.0 |
| 20260504215546 | 69 | 231 | 0.9 | 6.1 | 0.00 | 0.00 | 0.00 | 40 | 1009.1 |
| 20260504215045 | 70 | 177 | 0.9 | 3.5 | 0.00 | 0.00 | 0.00 | 38 | 1009.0 |
| 20260504214547 | 70 | 210 | 0.9 | 3.5 | 0.00 | 0.00 | 0.00 | 40 | 1009.1 |
| 20260504214044 | 70 | 254 | 1.7 | 4.3 | 0.00 | 0.00 | 0.00 | 40 | 1009.1 |
| 20260504213544 | 70 | 216 | 1.7 | 4.3 | 0.00 | 0.00 | 0.00 | 39 | 1009.1 |
| 20260504213044 | 70 | 197 | 0.9 | 4.3 | 0.00 | 0.00 | 0.00 | 39 | 1009.0 |
| 20260504212543 | 70 | 230 | 1.7 | 3.5 | 0.00 | 0.00 | 0.00 | 40 | 1009.1 |
| 20260504212043 | 70 | 267 | 1.7 | 5.2 | 0.00 | 0.00 | 0.00 | 38 | 1009.2 |
| 20260504211543 | 70 | 268 | 1.7 | 5.2 | 0.00 | 0.00 | 0.00 | 40 | 1009.2 |
| 20260504211042 | 70 | 234 | 0.9 | 5.2 | 0.00 | 0.00 | 0.00 | 39 | 1009.2 |
| 20260504210545 | 70 | 234 | 2.6 | 5.2 | 0.00 | 0.00 | 0.00 | 39 | 1009.2 |
| 20260504210054 | 70 | 239 | 0.9 | 6.1 | 0.00 | 0.00 | 0.00 | 42 | 1009.2 |
| 20260504205542 | 70 | 262 | 1.7 | 6.1 | 0.00 | 0.00 | 0.00 | 38 | 1009.2 |
| 20260504205039 | 70 | 250 | 1.7 | 4.3 | 0.00 | 0.00 | 0.00 | 40 | 1009.3 |
| 20260504204547 | 70 | 259 | 0.9 | 4.3 | 0.00 | 0.00 | 0.00 | 39 | 1009.4 |
| 20260504204039 | 70 | 248 | 0.9 | 8.7 | 0.00 | 0.00 | 0.00 | 40 | 1009.4 |
| 20260504203539 | 70 | 169 | 2.6 | 8.7 | 0.00 | 0.00 | 0.00 | 40 | 1009.4 |
| 20260504203043 | 70 | 257 | 0.9 | 6.1 | 0.00 | 0.00 | 0.00 | 40 | 1009.4 |
| 20260504202539 | 70 | 236 | 1.7 | 6.1 | 0.00 | 0.00 | 0.00 | 39 | 1009.4 |
| 20260504202039 | 70 | 229 | 1.7 | 3.5 | 0.00 | 0.00 | 0.00 | 39 | 1009.5 |